Location: SE Lincoln, NE
(40.7805°N, 96.6275°W)
Time: 03:36:16
(UTC-05:00)

GPS 2-04 Rocket1 - Pass Details

Date: 15 May 2021
Orbit: 415 x 541 km, 35.6° (Epoch: 23 June)

Event Time Altitude Azimuth Distance (km) Brightness Sun altitude
Rises 21:17:38 0° 260° (W) 2,685 7.1 -7.4°
Reaches altitude 10° 21:19:59 10° 253° (WSW) 1,795 6.0 -7.8°
Maximum altitude 21:23:53 40° 183° (S) 798 3.4 -8.4°
Enters shadow 21:27:26 12° 115° (ESE) 1,669 4.6 -9.0°
